Location: Oberwangen
(47.4286°N, 8.9679°E)
Time: 23:45:37
(UTC+00:00)

USA 215 - Pass Details

Date: 20 June 2021
Orbit: 1100 x 1107 km, 123.0° (Epoch: 22 June)

Event Time Altitude Azimuth Distance (km) Brightness Sun altitude
Rises 22:10:35 0° 54° (NE) 3,923 6.4 -17.1°
Reaches altitude 10° 22:13:08 10° 59° (ENE) 2,963 5.7 -17.3°
Maximum altitude 22:19:33 56° 136° (SE) 1,294 3.3 -17.6°
Enters shadow 22:25:28 12° 213° (SSW) 2,785 5.0 -17.8°
